Time,TemperatureF,DewpointF,PressureIn,WindDirection,WindDirectionDegrees,WindSpeedMPH,WindSpeedGustMPH,Humidity,HourlyPrecipIn,Conditions,Clouds,dailyrainin,SoftwareType,DateUTC
2013-03-10 00:22:00,62.0,-99.9,-100.00,SE,124,17.0,-999.0,105,0.00,,,-99.99,,2013-03-10 06:22:00,
2013-03-10 00:32:00,62.0,-99.9,-100.00,SE,124,17.0,-999.0,105,0.00,,,-99.99,,2013-03-10 06:32:00,
2013-03-10 00:42:00,62.0,-99.9,-100.00,SE,124,17.0,-999.0,105,0.00,,,-99.99,,2013-03-10 06:42:00,
2013-03-10 01:11:00,62.0,-99.9,-100.00,ESE,116,16.0,-999.0,104,0.00,,,-99.99,,2013-03-10 07:11:00,
2013-03-10 01:21:00,62.0,-99.9,-100.00,ESE,116,16.0,-999.0,104,0.00,,,-99.99,,2013-03-10 07:21:00,
2013-03-10 01:32:00,62.0,-99.9,-100.00,ESE,116,16.0,-999.0,104,0.00,,,-99.99,,2013-03-10 07:32:00,
2013-03-10 01:42:00,62.0,-99.9,-100.00,ESE,116,16.0,-999.0,104,0.00,,,-99.99,,2013-03-10 07:42:00,
2013-03-10 03:12:00,62.0,-99.9,-100.00,ESE,118,16.0,-999.0,104,0.00,,,-99.99,,2013-03-10 08:12:00,
2013-03-10 03:21:00,62.0,-99.9,-100.00,ESE,118,16.0,-999.0,104,0.00,,,-99.99,,2013-03-10 08:21:00,
2013-03-10 03:32:00,62.0,-99.9,-100.00,ESE,118,16.0,-999.0,104,0.00,,,-99.99,,2013-03-10 08:32:00,
2013-03-10 03:42:00,62.0,-99.9,-100.00,ESE,118,16.0,-999.0,104,0.00,,,-99.99,,2013-03-10 08:42:00,
2013-03-10 04:11:00,62.0,-99.9,-100.00,ESE,116,14.0,-999.0,104,0.00,,,-99.99,,2013-03-10 09:11:00,
2013-03-10 04:21:00,62.0,-99.9,-100.00,ESE,116,14.0,-999.0,104,0.00,,,-99.99,,2013-03-10 09:21:00,
2013-03-10 04:32:00,62.0,-99.9,-100.00,ESE,116,14.0,-999.0,104,0.00,,,-99.99,,2013-03-10 09:32:00,
2013-03-10 04:42:00,62.0,-99.9,-100.00,ESE,116,14.0,-999.0,104,0.00,,,-99.99,,2013-03-10 09:42:00,
2013-03-10 05:11:00,62.0,-99.9,-100.00,ESE,121,17.0,-999.0,104,0.00,,,-99.99,,2013-03-10 10:11:00,
2013-03-10 05:22:00,62.0,-99.9,-100.00,ESE,121,17.0,-999.0,104,0.00,,,-99.99,,2013-03-10 10:22:00,
2013-03-10 05:32:00,62.0,-99.9,-100.00,ESE,121,17.0,-999.0,104,0.00,,,-99.99,,2013-03-10 10:32:00,
2013-03-10 05:42:00,62.0,-99.9,-100.00,ESE,121,17.0,-999.0,104,0.00,,,-99.99,,2013-03-10 10:42:00,
2013-03-10 06:12:00,62.0,-99.9,-100.00,ESE,108,13.0,-999.0,105,0.00,,,-99.99,,2013-03-10 11:12:00,
2013-03-10 06:22:00,62.0,-99.9,-100.00,ESE,108,13.0,-999.0,105,0.00,,,-99.99,,2013-03-10 11:22:00,
2013-03-10 06:32:00,62.0,-99.9,-100.00,ESE,108,13.0,-999.0,105,0.00,,,-99.99,,2013-03-10 11:32:00,
2013-03-10 06:42:00,62.0,-99.9,-100.00,ESE,108,13.0,-999.0,105,0.00,,,-99.99,,2013-03-10 11:42:00,
2013-03-10 07:21:00,62.0,-99.9,-100.00,ESE,110,13.0,-999.0,106,0.00,,,-99.99,,2013-03-10 12:21:00,
2013-03-10 07:32:00,62.0,-99.9,-100.00,ESE,110,13.0,-999.0,106,0.00,,,-99.99,,2013-03-10 12:32:00,
2013-03-10 07:42:00,62.0,-99.9,-100.00,ESE,110,13.0,-999.0,106,0.00,,,-99.99,,2013-03-10 12:42:00,
2013-03-10 08:21:00,62.0,-99.9,-100.00,ESE,115,13.0,-999.0,104,0.00,,,-99.99,,2013-03-10 13:21:00,
2013-03-10 08:32:00,62.0,-99.9,-100.00,ESE,115,13.0,-999.0,104,0.00,,,-99.99,,2013-03-10 13:32:00,
2013-03-10 08:42:00,62.0,-99.9,-100.00,ESE,115,13.0,-999.0,104,0.00,,,-99.99,,2013-03-10 13:42:00,
2013-03-10 09:21:00,63.0,62.0,-100.00,ESE,115,13.0,-999.0,97,0.00,,,-99.99,,2013-03-10 14:21:00,
2013-03-10 09:32:00,63.0,62.0,-100.00,ESE,115,13.0,-999.0,97,0.00,,,-99.99,,2013-03-10 14:32:00,
2013-03-10 09:41:00,63.0,62.0,-100.00,ESE,115,13.0,-999.0,97,0.00,,,-99.99,,2013-03-10 14:41:00,
2013-03-10 10:21:00,64.0,62.0,-100.00,ESE,111,15.0,-999.0,94,0.00,,,-99.99,,2013-03-10 15:21:00,
2013-03-10 10:32:00,64.0,62.0,-100.00,ESE,111,15.0,-999.0,94,0.00,,,-99.99,,2013-03-10 15:32:00,
2013-03-10 10:42:00,64.0,62.0,-100.00,ESE,111,15.0,-999.0,94,0.00,,,-99.99,,2013-03-10 15:42:00,
2013-03-10 11:21:00,64.0,62.0,-100.00,ESE,117,16.0,-999.0,93,0.00,,,-99.99,,2013-03-10 16:21:00,
2013-03-10 11:32:00,64.0,62.0,-100.00,ESE,117,16.0,-999.0,93,0.00,,,-99.99,,2013-03-10 16:32:00,
2013-03-10 11:41:00,64.0,62.0,-100.00,ESE,117,16.0,-999.0,93,0.00,,,-99.99,,2013-03-10 16:41:00,
2013-03-10 12:21:00,65.0,63.0,-100.00,ESE,121,17.0,-999.0,94,0.00,,,-99.99,,2013-03-10 17:21:00,
2013-03-10 12:31:00,65.0,63.0,-100.00,ESE,121,17.0,-999.0,94,0.00,,,-99.99,,2013-03-10 17:31:00,
2013-03-10 12:41:00,65.0,63.0,-100.00,ESE,121,17.0,-999.0,94,0.00,,,-99.99,,2013-03-10 17:41:00,
2013-03-10 13:11:00,65.0,64.0,-100.00,SE,127,17.0,-999.0,96,0.00,,,-99.99,,2013-03-10 18:11:00,
2013-03-10 13:22:00,65.0,64.0,-100.00,SE,127,17.0,-999.0,96,0.00,,,-99.99,,2013-03-10 18:22:00,
2013-03-10 13:32:00,65.0,64.0,-100.00,SE,127,17.0,-999.0,96,0.00,,,-99.99,,2013-03-10 18:32:00,
2013-03-10 13:42:00,65.0,64.0,-100.00,SE,127,17.0,-999.0,96,0.00,,,-99.99,,2013-03-10 18:42:00,
2013-03-10 14:21:00,65.0,65.0,-100.00,SE,124,17.0,-999.0,97,0.00,,,-99.99,,2013-03-10 19:21:00,
2013-03-10 14:32:00,65.0,65.0,-100.00,SE,124,17.0,-999.0,97,0.00,,,-99.99,,2013-03-10 19:32:00,
2013-03-10 14:42:00,65.0,65.0,-100.00,SE,124,17.0,-999.0,97,0.00,,,-99.99,,2013-03-10 19:42:00,
2013-03-10 15:22:00,66.0,65.0,-100.00,ESE,118,17.0,-999.0,98,0.00,,,-99.99,,2013-03-10 20:22:00,
2013-03-10 15:32:00,66.0,65.0,-100.00,ESE,118,17.0,-999.0,98,0.00,,,-99.99,,2013-03-10 20:32:00,
2013-03-10 15:42:00,66.0,65.0,-100.00,ESE,118,17.0,-999.0,98,0.00,,,-99.99,,2013-03-10 20:42:00,
2013-03-10 16:23:00,66.0,65.0,-100.00,ESE,118,19.0,-999.0,98,0.00,,,-99.99,,2013-03-10 21:23:00,
2013-03-10 16:32:00,66.0,65.0,-100.00,ESE,118,19.0,-999.0,98,0.00,,,-99.99,,2013-03-10 21:32:00,
2013-03-10 16:42:00,66.0,65.0,-100.00,ESE,118,19.0,-999.0,98,0.00,,,-99.99,,2013-03-10 21:42:00,
2013-03-10 17:23:00,66.0,-99.9,-100.00,ESE,119,18.0,-999.0,101,0.00,,,-99.99,,2013-03-10 22:23:00,
2013-03-10 17:33:00,66.0,-99.9,-100.00,ESE,119,18.0,-999.0,101,0.00,,,-99.99,,2013-03-10 22:33:00,
2013-03-10 17:43:00,66.0,-99.9,-100.00,ESE,119,18.0,-999.0,101,0.00,,,-99.99,,2013-03-10 22:43:00,
2013-03-10 18:23:00,65.0,-99.9,-100.00,ESE,118,19.0,-999.0,103,0.00,,,-99.99,,2013-03-10 23:23:00,
2013-03-10 18:33:00,65.0,-99.9,-100.00,ESE,118,19.0,-999.0,103,0.00,,,-99.99,,2013-03-10 23:33:00,
2013-03-10 18:43:00,65.0,-99.9,-100.00,ESE,118,19.0,-999.0,103,0.00,,,-99.99,,2013-03-10 23:43:00,
2013-03-10 19:23:00,65.0,-99.9,-100.00,ESE,123,20.0,-999.0,106,0.00,,,-99.99,,2013-03-11 00:23:00,
2013-03-10 19:34:00,65.0,-99.9,-100.00,ESE,123,20.0,-999.0,106,0.00,,,-99.99,,2013-03-11 00:34:00,
2013-03-10 19:43:00,65.0,-99.9,-100.00,ESE,123,20.0,-999.0,106,0.00,,,-99.99,,2013-03-11 00:43:00,
2013-03-10 20:23:00,65.0,-99.9,-100.00,SE,130,21.0,-999.0,106,0.00,,,-99.99,,2013-03-11 01:23:00,
2013-03-10 20:33:00,65.0,-99.9,-100.00,SE,130,21.0,-999.0,106,0.00,,,-99.99,,2013-03-11 01:33:00,
2013-03-10 20:43:00,65.0,-99.9,-100.00,SE,130,21.0,-999.0,106,0.00,,,-99.99,,2013-03-11 01:43:00,
2013-03-10 21:23:00,65.0,-99.9,-100.00,SE,129,19.0,-999.0,105,0.00,,,-99.99,,2013-03-11 02:23:00,
2013-03-10 21:33:00,65.0,-99.9,-100.00,SE,129,19.0,-999.0,105,0.00,,,-99.99,,2013-03-11 02:33:00,
2013-03-10 21:43:00,65.0,-99.9,-100.00,SE,129,19.0,-999.0,105,0.00,,,-99.99,,2013-03-11 02:43:00,
2013-03-10 22:22:00,65.0,-99.9,-100.00,SE,129,19.0,-999.0,105,0.00,,,-99.99,,2013-03-11 03:22:00,
2013-03-10 22:32:00,65.0,-99.9,-100.00,SE,129,19.0,-999.0,105,0.00,,,-99.99,,2013-03-11 03:32:00,
2013-03-10 22:43:00,65.0,-99.9,-100.00,SE,129,19.0,-999.0,105,0.00,,,-99.99,,2013-03-11 03:43:00,
2013-03-10 23:23:00,65.0,-99.9,-100.00,SE,131,18.0,-999.0,106,0.00,,,-99.99,,2013-03-11 04:23:00,
2013-03-10 23:33:00,65.0,-99.9,-100.00,SE,131,18.0,-999.0,106,0.00,,,-99.99,,2013-03-11 04:33:00,
2013-03-10 23:43:00,65.0,-99.9,-100.00,SE,131,18.0,-999.0,106,0.00,,,-99.99,,2013-03-11 04:43:00,